Location: Bois Neuf
(42.7667°N, 0.6333°E)
Time: 03:31:24
(UTC+00:00)

STARLINK-1284 - Pass Details

Date: 07 June 2020
Orbit: 548 x 551 km, 53.0° (Epoch: 09 July)

Event Time Altitude Azimuth Distance (km) Brightness Sun altitude
Exits shadow 01:27:04 26° 280° (W) 1,106 5.0 -21.2°
Maximum altitude 01:28:52 41° 333° (NNW) 807 4.7 -21.1°
Drops below altitude 10° 01:32:49 10° 45° (NE) 1,824 7.3 -20.8°
Sets 01:35:09 0° 52° (NE) 2,720 8.2 -20.6°
